Tracking 18917 objects as of 16-Jan-2018
HD Live streaming from Space Station
objects crossing your sky now

IRIDIUM 84

Track IRIDIUM 84 now!
10-day predictions
IRIDIUM 84 is classified as:


NORAD ID: 25530
Int'l Code: 1998-066D
Perigee: 783.4 km
Apogee: 786.3 km
Inclination: 86.4 °
Period: 100.4 minutes
Semi major axis: 7155 km
RCS: 3.8587 m2 (large)
Launch date: November 6, 1998
Source: United States (US)
Launch site: AIR FORCE WESTERN TEST RANGE (AFWTR)

Spare; stored in 667 km storage orbit, not raised to 780 km operational orbit until needed
aabbcc
Your satellite tracking list
Your tracking list is empty




NASA's NSSDC Master Catalog

Two Line Element Set (TLE):
1 25530U 98066D   18016.28766674  .00000148  00000-0  45937-4 0  9991
2 25530  86.3953 260.8411 0002027  86.6333 273.5095 14.34218984  7544
Source of the keplerian elements: AFSPC